#timestamp,LO_Frequency,Hit,StdDev 
1677988815.7,286046998.4,N
1677988835.6,286046998.8,N
1677988855.4,286046998.4,N
1677988875.2,286046999.3,N
1677988895.1,286046997.8,N
1677988896.0,286046997.8,N
1677988915.8,286046997.4,N
1677988935.7,286046996.8,N
1677988955.5,286046997.7,N
1677988975.3,286046996.9,N
1677988995.2,286046997.2,N
1677989015.0,286046997.8,N
1677989015.9,286046997.8,N
1677989035.7,286046999.1,N
1677989055.6,286046997.0,N
1677989075.4,286046999.3,N
1677989095.3,286046999.4,N
1677989115.1,286046999.0,N
1677989135.8,286046998.7,N
1677989155.7,286047000.8,N
1677989175.5,286047002.0,N
1677989195.4,286047002.5,N
1677989215.2,286047000.9,N
1677989235.0,286046998.1,N
1677989235.9,286046998.1,N
1677989255.8,286047002.7,N
1677989275.6,286047002.5,N
1677989295.4,286047002.3,N
1677989315.3,286047001.0,N
1677989335.1,286047002.6,N
1677989355.9,286047003.6,N
1677989375.7,286047003.5,N
1677989395.5,286047005.8,N
1677989415.4,286047001.8,N
1677989435.2,286047002.1,N
1677989455.0,286046999.9,N
1677989455.9,286046999.9,N
1677989475.8,286047000.4,N
1677989495.6,286047001.0,N
1677989515.5,286047000.5,N
1677989535.3,286046999.9,N
1677989555.1,286047002.4,N
1677989575.9,286047002.8,N
1677989595.7,286046998.6,N
1677989615.5,286047001.0,N
1677989635.4,286047001.5,N
1677989655.2,286047002.3,N
1677989675.1,286047003.1,N
1677989676.0,286047003.1,N
1677989695.8,286047003.1,N
1677989715.6,286047005.7,Y
1677989735.5,286047001.4,P
1677989755.3,286047003.6,P
1677989775.2,286047001.3,N
1677989795.9,286047003.5,Y
1677989815.7,286047003.9,P
1677989835.6,286047003.7,P
1677989855.4,286047003.4,P
1677989875.2,286047001.7,N
1677989895.1,286047001.6,N
1677989896.0,286047001.6,N
1677989915.8,286047001.9,N
1677989935.7,286047000.9,N
1677989955.5,286047000.6,N
1677989975.3,286046999.4,N
1677989995.2,286046998.9,N
1677990015.0,286046999.0,N
1677990015.9,286047011.9,Y
1677990035.8,286046995.6,P
1677990055.6,286046994.5,N
1677990075.4,286046997.6,N
1677990095.3,286046999.6,N
1677990115.1,286046998.3,N
1677990135.8,286047000.7,N
1677990155.7,286046998.8,N
1677990175.5,286046998.6,N
1677990195.4,286046997.4,N
1677990215.2,286046998.3,N
1677990235.0,286046999.9,N
1677990235.9,286046999.9,N
1677990255.8,286047000.3,N
1677990275.6,286046999.8,N
1677990295.4,286047002.1,N
1677990315.3,286047000.8,N
1677990335.1,286046998.5,N
1677990355.9,286046996.6,N
1677990375.7,286047000.8,N
1677990395.5,286046999.3,N
1677990415.4,286046997.0,N
1677990435.2,286046996.6,N
1677990455.0,286047001.2,N
1677990455.9,286047001.2,N
1677990475.8,286047001.0,N
1677990495.6,286046998.3,N
1677990515.5,286047000.6,N
1677990535.3,286047001.0,N
1677990555.1,286046996.8,N
1677990575.9,286046997.8,N
1677990595.7,286046997.1,N
1677990615.5,286046996.6,N
1677990635.4,286047000.2,N
1677990655.2,286047002.8,N
1677990675.1,286047001.5,N
1677990676.0,286047001.5,N
1677990695.8,286047002.8,N
1677990715.6,286046999.7,N
1677990735.5,286047000.4,N
1677990755.3,286046998.3,N
1677990775.1,286046998.0,N
1677990795.9,286046997.3,N
1677990815.7,286046996.5,N
1677990835.6,286046998.8,N
1677990855.4,286046996.8,N
1677990875.2,286046998.9,N
1677990895.1,286047000.7,N
1677990896.0,286047000.7,N
1677990915.8,286046998.4,N
1677990935.6,286046998.1,N
1677990955.5,286046998.4,N
1677990975.3,286046998.8,N
1677990995.2,286046998.8,N
1677991015.9,286046998.6,N
1677991035.7,286047002.7,N
1677991055.6,286047005.6,Y
1677991075.4,286047007.0,P
1677991095.2,286047006.7,N
1677991115.1,286047008.7,N
1677991116.0,286047008.7,N
1677991135.8,286047007.8,N
1677991155.7,286047008.8,N
1677991175.5,286047008.1,N
1677991195.3,286047012.3,Y
1677991215.2,286047002.3,P
1677991235.0,286047002.8,N
1677991235.9,286047002.8,N
1677991255.7,286047000.8,N
1677991275.6,286047003.1,N
1677991295.4,286047007.1,Y
1677991315.3,286047002.2,P
1677991335.1,286047001.0,N
1677991355.8,286046999.7,N
1677991375.7,286047002.7,N
1677991395.5,286047002.0,N
1677991415.3,286047001.8,N
1677991435.2,286047000.8,N
1677991455.0,286046996.6,Y
1677991455.9,286046996.6,P
1677991475.8,286046995.2,N
1677991495.6,286046999.0,N
1677991515.4,286046996.6,N
1677991535.3,286046999.0,N
1677991555.1,286046996.9,N
1677991575.9,286046997.1,N
1677991595.7,286046996.9,N
1677991615.5,286046998.0,N
1677991635.4,286046996.4,N
1677991655.2,286046998.0,N
1677991675.0,286046997.9,N
1677991676.0,286046997.9,N
1677991695.8,286046996.8,N
1677991715.6,286046997.5,N
1677991735.5,286046998.7,N
1677991755.3,286047000.8,N
1677991775.1,286046999.1,N
1677991795.9,286046996.7,N
1677991815.7,286047000.1,N
1677991835.6,286047005.1,Y
1677991855.4,286047007.1,P
1677991875.2,286047003.8,N
1677991895.1,286047000.1,N
1677991896.0,286047000.1,N
1677991915.8,286047000.6,N
1677991935.6,286047002.5,N
1677991955.5,286047000.2,N
1677991975.3,286046999.0,N
1677991995.2,286046999.2,N
1677992015.9,286047000.9,N
1677992035.7,286047000.5,N
1677992055.6,286047000.4,N
1677992075.4,286047004.0,N
1677992095.2,286047000.6,N
1677992115.1,286047001.0,N
1677992116.0,286047001.0,N
1677992135.8,286046999.3,N
1677992155.7,286046998.5,N
1677992175.5,286047001.0,N
1677992195.3,286047004.1,N
1677992215.2,286047004.0,N
1677992235.0,286047003.8,N
1677992235.9,286047003.8,N
1677992255.7,286047004.7,N
1677992275.6,286047006.1,N
1677992295.4,286047007.5,Y
1677992315.3,286047005.5,P
1677992335.1,286047003.6,N
1677992336.0,286047003.6,N
1677992355.8,286047002.2,N
1677992375.7,286046999.7,N
1677992395.5,286046998.9,N
